Location: Bon Acre
(42.6442°N, 73.5758°W)
Time: 02:11:16
(UTC+00:00)

SL-08 R/B - Pass Details

Date: 17 March 2026
Orbit: 946 x 992 km, 83.0° (Epoch: 13 April)

Event Time Altitude Azimuth Distance (km) Brightness Sun altitude
Exits shadow 03:10:14 17° 273° (W) 2,222 6.7 -41.7°
Maximum altitude 03:11:51 18° 293° (WNW) 2,127 6.7 -41.8°
Drops below altitude 10° 03:15:57 10° 336° (NNW) 2,675 7.4 -42.3°
Sets 03:19:20 0° 354° (N) 3,625 8.1 -42.7°
